Location: New Frontier Mobile Home Park
(32.8448°N, 116.9675°W)
Time: 23:07:05
(UTC+00:00)

Cosmos 1400 Rocket - Pass Details

Date: 14 July 2020
Orbit: 521 x 568 km, 81.2° (Epoch: 05 August)

Event Time Altitude Azimuth Distance (km) Brightness Sun altitude
Rises 04:22:27 0° 343° (NNW) 2,673 7.3 -15.8°
Reaches altitude 10° 04:24:42 10° 336° (NNW) 1,773 6.4 -16.2°
Maximum altitude 04:28:21 40° 266° (W) 780 3.9 -16.7°
Enters shadow 04:31:43 12° 197° (SSW) 1,656 5.0 -17.3°
